Flag for U.S.A. Weather past 2 weeks in Simi Valley, California, U.S.A.

Now
68 °F

Overcast.


Feels Like: 68 °F
Forecast: 62 / 83 °F
Wind: 9 mph from South

Location: Van Nuys Airport

Current Time: Sep 1, 2015 at 2:00:09 AM

Latest Report: Sep 1, 2015 at 12:51 AM


Visibility: 10 mi

Pressure: 29.90 "Hg

Humidity: 82%

Dew point: 62 °F

Location of Simi ValleyLocation

Historic Weather in Simi Valley — Graph

°F

Simi Valley temperature yesterday

Maximum temperature yesterday: 88 °F (at 3:51 PM)
Minimum temperature yesterday: 66 °F (at 5:51 AM)
Average temperature yesterday: 75 °F

Past Weeks' High & Low Weather Summary

 TemperatureHumidityPressure
High103 °F (Aug 28, 2:51 PM)91% (Aug 22, 2:58 AM)29.97 "Hg (Aug 22, 2:58 AM)
Low65 °F (Aug 19, 6:00 AM)14% (Aug 28, 4:51 PM)29.77 "Hg (Aug 28, 4:51 PM)
Average78 °F57%29.87 "Hg
* Reported Aug 17 12:51 AM — Sep 1 12:51 AM, Simi Valley, Weather by CustomWeather, © 2015

Note: Actual official high and low records may vary slightly from our data, if they occured in-between our weather recording intervals... More about our weather records

Advertising

Simi Valley weather history for previous 24 hours

 ConditionsComfort  
Time TempWeatherWind HumidityBarometerVisibility
12:51 AM
Tue, Sep 1
68 °FOvercast.9 mph82%29.90 "Hg10 mi
11:51 PM
Mon, Aug 31
68 °FOvercast.6 mph84%29.89 "Hg10 mi
10:51 PM69 °FClear.6 mph79%29.88 "Hg10 mi
9:51 PM71 °FClear.6 mph71%29.87 "Hg10 mi
7:51 PM75 °FSunny.8 mph54%29.82 "Hg10 mi
6:51 PM79 °FSunny.10 mph44%29.81 "Hg10 mi
5:51 PM83 °FSunny.9 mph33%29.80 "Hg10 mi
4:51 PM85 °FSunny.10 mph34%29.81 "Hg10 mi
3:51 PM88 °FSunny.13 mph25%29.82 "Hg10 mi
2:51 PM87 °FSunny.7 mph26%29.83 "Hg10 mi
1:51 PM85 °FSunny.10 mph45%29.85 "Hg10 mi
12:51 PM84 °FSunny.9 mph48%29.87 "Hg10 mi
11:51 AM82 °FSunny.7 mph49%29.88 "Hg10 mi
10:51 AM81 °FSunny.6 mph51%29.89 "Hg10 mi
9:51 AM76 °FSunny.3 mph62%29.89 "Hg10 mi
8:51 AM72 °FSunny.No wind73%29.88 "Hg9 mi
7:51 AM68 °FPartly sunny.5 mph84%29.88 "Hg7 mi
6:51 AM67 °FPassing clouds.No wind87%29.86 "Hg7 mi
5:51 AM66 °FClear.5 mph87%29.85 "Hg10 mi
4:51 AM68 °FClear.3 mph82%29.83 "Hg10 mi
3:51 AM70 °FClear.5 mph73%29.82 "Hg10 mi
2:51 AM70 °FClear.5 mph71%29.82 "Hg10 mi
Weather by CustomWeather, © 2015

See weather overviewHow to use our weather pages